Hourly Data Report for July 30, 2021

TORONTO CITY
ONTARIO
Current Station Operator: ECCC - MSC

43°40'00.000" N
79°24'00.000" W
112.50 m
6158355
71508
XTO

Download Data

Hourly Data (July 2021)
Hourly Data Report for July 30, 2021
TIME
LST
Temp Definition
°C
Dew Point Definition
°C
Rel Hum Definition
%
Precip. Amount Definition
mm

Wind Dir Definition
10's deg

Wind Spd Definition
km/h
Visibility Definition
km
Stn Press Definition
kPa
Hmdx Definition


Wind Chill Definition


Weather Definition


00:00 19.9 17.1 84 0.0       99.64     LegendNANA
01:00 19.3 16.2 83 0.0       99.65     LegendNANA
02:00 18.9 15.2 79 0.0       99.72     LegendNANA
03:00 18.1 14.8 81 0.0       99.78     LegendNANA
04:00 17.5 14.4 82 0.0       99.86     LegendNANA
05:00 16.7 13.4 81 0.0       99.95     LegendNANA
06:00 16.4 12.6 78 0.0       100.03     LegendNANA
07:00 16.8 11.9 73 0.0       100.10     LegendNANA
08:00 17.4 10.9 66 0.0       100.17     LegendNANA
09:00 18.2 8.7 54 0.0       100.19     LegendNANA
10:00 18.9 9.7 55 0.0       100.25     LegendNANA
11:00 19.2 8.5 50 0.0       100.31     LegendNANA
12:00 20.0 8.6 48 0.0       100.36     LegendNANA
13:00 20.0 8.8 48 0.0       100.34     LegendNANA
14:00 20.3 9.3 49 0.0       100.32     LegendNANA
15:00 20.5 9.1 48 0.0       100.34     LegendNANA
16:00 19.9 8.7 49 0.0       100.31     LegendNANA
17:00 19.3 8.3 49 0.0       100.34     LegendNANA
18:00 19.0 8.0 49 0.0       100.34     LegendNANA
19:00 18.1 7.2 49 0.0       100.36     LegendNANA
20:00 17.2 7.2 52 0.0       100.38     LegendNANA
21:00 16.6 7.4 55 0.0       100.41     LegendNANA
22:00 15.7 8.0 60 0.0       100.41     LegendNANA
23:00 15.5 8.0 61 0.0       100.40     LegendNANA

Notes on Data Quality.

Legend

  • E = Estimated
  • M = Missing
  • NA = Not Available*
  • [empty] = Indicates an unobserved value
Date modified: